Location: Kuffner-Sternwarte
(48.2130°N, 16.2960°E)
Time: 18:52:27
(UTC+02:00)

COROT - Pass Details

Date: 25 May 2017
Orbit: 600 x 890 km, 90.0° (Epoch: 24 September)

Event Time Altitude Azimuth Distance (km) Brightness Sun altitude
Rises 21:31:45 0° 1° (N) 3,158 9.9 -7.5°
Reaches altitude 10° 21:34:08 10° 2° (N) 2,186 9.0 -7.8°
Maximum altitude 21:38:57 87° 92° (E) 673 5.7 -8.4°
Drops below altitude 10° 21:43:22 10° 182° (S) 2,014 7.8 -8.9°
Enters shadow 21:45:03 - 183° (S) 2,705 8.4 -9.1°
